DW7831 Weather Reports


Display with metric or nautical units.
time (UTC)temp
F
wind
direction
speed
MPH
gust
MPH
rain 1hr
in
rain 24hr
in
rain mn
in
humidity
%
barometer
mb
20260904174527 74 304 3.0 0.0 0.00 0.00 0.01 53 1012.6
20260904173023 73 309 2.0 0.0 0.00 0.00 0.01 52 1012.6
20260904171520 72 336 3.0 0.0 0.00 0.00 0.01 53 1012.6
20260904170018 73 360 1.0 0.0 0.00 0.00 0.01 51 1012.5
20260904164516 72 344 2.0 0.0 0.00 0.00 0.01 51 1012.6
20260904163010 72 247 2.0 0.0 0.00 0.00 0.01 50 1012.3
20260904161505 71 360 5.0 0.0 0.00 0.00 0.01 50 1012.7
20260904160004 71 336 1.0 0.0 0.00 0.00 0.01 46 1012.8
20260904154600 71 323 1.0 0.0 0.00 0.00 0.01 44 1013.2
20260904153106 70 349 2.0 0.0 0.00 0.00 0.01 43 1013.2
20260904151552 70 13 1.0 0.0 0.00 0.00 0.01 39 1013.1
20260904144546 68 342 2.0 0.0 0.00 0.00 0.01 28 1013.5
20260904143040 68 261 1.0 0.0 0.00 0.00 0.01 20 1013.8
20260904141537 67 259 1.0 0.0 0.00 0.00 0.01 7 1013.6
20260904140034 66 268 0.0 0.0 0.00 0.00 0.01 100 1013.4
20260904134531 66 289 0.0 0.0 0.00 0.00 0.01 100 1013.5
20260904133025 65 290 1.0 0.0 0.00 0.00 0.01 100 1013.5
20260904131523 65 305 0.0 0.0 0.00 0.00 0.01 100 1013.5
20260904130035 65 309 1.0 0.0 0.00 0.00 0.01 100 1013.5
20260904124510 65 307 1.0 0.0 0.00 0.00 0.01 100 1013.4
20260904123015 65 280 2.0 0.0 0.00 0.00 0.01 100 1013.4
20260904121501 64 289 1.0 0.0 0.00 0.00 0.01 100 1013.1
20260904114554 0 0.0 0.0 0.00 0.00 0.01 1013.0
20260904113050 0 0.0 0.0 0.00 0.00 0.01 1012.9
20260904111544 64 298 0.0 0.0 0.00 0.00 0.01 100 1012.8
20260904104536 64 302 0.0 0.0 0.00 0.00 0.01 100 1012.5
20260904103032 64 302 0.0 0.0 0.00 0.00 0.01 100 1012.4
20260904101531 65 302 0.0 0.0 0.00 0.00 0.01 100 1012.2
20260904094522 65 310 0.0 0.0 0.00 0.00 0.01 100 1012.2
20260904093021 65 310 0.0 0.0 0.00 0.00 0.01 100 1012.4
20260904091519 65 310 0.0 0.0 0.00 0.00 0.01 100 1012.2
20260904084506 65 311 0.0 0.0 0.00 0.00 0.01 100 1012.1
20260904083001 65 311 0.0 0.0 0.00 0.00 0.00 100 1012.1
20260904081600 65 311 0.0 0.0 0.00 0.00 0.00 100 1011.9
20260904074549 65 311 0.0 0.0 0.00 0.00 0.00 100 1011.8
20260904073045 65 311 0.0 0.0 0.00 0.00 0.00 100 1011.8
20260904071540 65 311 0.0 0.0 0.00 0.00 0.00 100 1011.8
20260904064534 65 311 0.0 0.0 0.00 0.00 0.00 100 1011.7
20260904063030 66 311 0.0 0.0 0.00 0.00 0.00 100 1011.8
20260904061538 66 311 0.0 0.0 0.00 0.00 0.00 100 1012.3
20260904054522 65 311 0.0 0.0 0.00 0.00 0.00 100 1012.7
20260904053014 65 311 0.0 0.0 0.00 0.00 0.00 100 1012.7
20260904051510 66 311 0.0 0.0 0.00 0.00 0.00 100 1012.7
20260904044505 66 311 0.0 0.0 0.00 0.00 0.00 100 1012.6
20260904043107 66 311 0.0 0.0 0.00 0.00 0.00 100 1012.6
20260904041554 66 311 0.0 0.0 0.00 0.00 0.00 100 1012.9
20260904034547 66 311 0.0 0.0 0.00 0.00 0.08 100 1013.0
20260904033042 66 311 0.0 0.0 0.00 0.00 0.08 100 1013.0
20260904031537 66 311 0.0 0.0 0.00 0.00 0.08 100 1013.2
20260904024533 66 311 0.0 0.0 0.00 0.00 0.08 100 1013.3
20260904023028 66 311 0.0 0.0 0.00 0.00 0.08 100 1013.3
20260904021525 66 311 0.0 0.0 0.00 0.00 0.06 100 1013.5
20260904014515 66 311 0.0 0.0 0.00 0.00 0.06 100 1013.8
20260904013011 66 311 0.0 0.0 0.00 0.00 0.06 100 1013.7
20260904011507 66 311 0.0 0.0 0.00 0.00 0.06 100 1013.8
20260904004600 67 311 0.0 0.0 0.00 0.00 0.06 100 1013.5
20260904004501 67 311 0.0 0.0 0.00 0.00 0.06 100 1013.4
20260904003055 68 311 0.0 0.0 0.00 0.00 0.06 100 1013.5
20260904001553 68 311 0.0 0.0 0.00 0.00 0.06 100 1013.4
20260904000148 69 311 0.0 0.0 0.00 0.00 0.06 100 1013.4
20260903234543 70 311 0.0 0.0 0.00 0.00 0.06 100 1013.2
20260903233046 71 311 0.0 0.0 0.00 0.00 0.06 12 1013.3
20260903231535 73 311 0.0 0.0 0.00 0.00 0.06 23 1012.8
20260903230131 74 311 0.0 0.0 0.00 0.00 0.06 37 1012.7
20260903224530 74 311 0.0 0.0 0.00 0.00 0.06 40 1012.9
20260903223025 75 311 0.0 0.0 0.00 0.00 0.06 41 1012.5
20260903221521 75 311 0.0 0.0 0.00 0.00 0.06 38 1012.7
20260903220125 76 311 0.0 0.0 0.00 0.00 0.06 42 1012.5
20260903214514 76 311 0.0 0.0 0.00 0.00 0.06 44 1012.6
20260903213007 77 310 1.0 0.0 0.00 0.00 0.06 48 1012.8
20260903211504 78 265 2.0 0.0 0.00 0.00 0.06 50 1012.7
20260903210114 78 255 2.0 0.0 0.00 0.00 0.06 48 1012.9
20260903204557 78 226 2.0 0.0 0.00 0.00 0.06 45 1012.8
20260903203052 78 294 1.0 0.0 0.00 0.00 0.06 43 1012.5
20260903201549 78 234 3.0 0.0 0.00 0.00 0.06 44 1012.7
20260903200045 78 231 5.0 0.0 0.00 0.00 0.06 42 1012.7
20260903194544 77 246 2.0 0.0 0.00 0.00 0.06 41 1012.9
20260903193040 77 236 3.0 0.0 0.00 0.00 0.06 37 1013.1
20260903191548 76 254 3.0 0.0 0.00 0.00 0.06 35 1013.2
20260903190034 76 277 2.0 0.0 0.00 0.00 0.06 32 1013.4
20260903184540 75 273 1.0 0.0 0.00 0.00 0.06 32 1013.5
20260903183022 75 267 3.0 0.0 0.00 0.00 0.06 30 1013.6
20260903181518 74 228 5.0 0.0 0.00 0.00 0.06 26 1013.8
20260903180015 74 257 2.0 0.0 0.00 0.00 0.06 24 1013.8